384  
ASUS44 KSHV 292110  
RWRSHV  
 
THE FOUR STATE AREA WEATHER ROUNDUP  
NATIONAL WEATHER SERVICE SHREVEPORT LA  
300 PM CST SUN JAN 29 2023  
 
NOTE: "FAIR" INDICATES FEW OR NO CLOUDS BELOW 12000 FEET  
WITH NO SIGNIFICANT WEATHER AND/OR S TO VISIBILITY
.  
 
!LAZ001-LAZ014-TXZ097-292200  
SHREVEPORT...MONROE...TEXARKANA RADIOS  
 
CITY SKY/WX TMP DP RH WIND PRES REMARKS
 
SHREVEPORT LGT RAIN 64 63 94 E6 29.97S FOG  
MONROE LGT RAIN 62 60 93 CALM 30.02R FOG  
NATCHITOCHES LGT RAIN 64 64 100 S5 29.98F  
TEXARKANA CLOUDY 63 59 87 SW6 30.03R  
ATLANTA NOT AVBL  

 
 
!LAZ001-LAZ014-TXZ097-292200  
OTHER LOCATIONS...  
 
CITY SKY/WX TMP DP RH WIND PRES REMARKS
 
DOWNTOWN SHV RAIN 63 61 93 E7 29.98S FOG  
BOSSIER CITY RAIN 62 61 95 E6 29.98R FOG  
RUSTON LGT RAIN 61 61 100 SE7 30.00R  
LITTLE ROCK CLOUDY 58 53 84 E8 30.01F  
EL DORADO RAIN 61 61 100 SE9 30.00R  
JACKSON RAIN 63 61 93 CALM 30.05R FOG  
NEW ORLEANS CLOUDY 73 69 87 S13G22 30.03S  
HOUSTON CLOUDY 66 66 100 CALM 29.91F  
LUFKIN RAIN 65 64 97 CALM 29.97R FOG  
TYLER FOG 46 45 96 NW16G23 30.00S VSB 1  
DAL FT WORTH CLOUDY 34 29 82 NW22G29 30.08F WCI 22  

 
 
!TXZ136-TXZ165-292200  
TYLER...LUFKIN RADIOS  
 
CITY SKY/WX TMP DP RH WIND PRES REMARKS
 
TYLER FOG 46 45 96 NW16G23 30.00S VSB 1  
GILMER LGT RAIN 46 44 95 NW8 30.02R  
LONGVIEW PTSUNNY 67 63 87 N3 29.94F  
LUFKIN RAIN 65 64 97 CALM 29.97R FOG  

 
 
!TXZ136-TXZ165-292200  
OTHER LOCATIONS...  
 
CITY SKY/WX TMP DP RH WIND PRES REMARKS
 
NACOGDOCHES CLOUDY 65 65 100 N5 29.95F  
BEAUMONT CLOUDY 73 71 93 S12 29.93F  
HOUSTON CLOUDY 66 66 100 CALM 29.91F  
COLLEGE STN CLOUDY 65 61 87 N12 29.96R  
AUSTIN MOSUNNY 74 61 63 NE10 29.92F  
DAL FT WORTH CLOUDY 34 29 82 NW22G29 30.08F WCI 22  
TEXARKANA CLOUDY 63 59 87 SW6 30.03R  
SHREVEPORT LGT RAIN 64 63 94 E6 29.97S FOG  
FORT POLK CLOUDY 62 62 99 CALM 29.95F  
LAKE CHARLES RAIN 68 67 96 S5 29.95F FOG  

 
 
 
CLICK HERE TO GO TO PREVIOUS BULLETINS.

The Nexlab LA Page
The Nexlab TX Page
The Nexlab AR Page
The Nexlab OK Page Main Text Page